Ogden, UT

6:48 AM MST on February 10, 2016 (GMT -0700)
Ogden-Hinckley

Weather History for KOGD - September, 2014

Change the Weather History Date:

Monday, September 22, 2014

  Actual Average Record
Temperature  
Mean Temperature 65 °F -  
Max Temperature 75 °F 74 °F 90 °F (1966)
Min Temperature 57 °F 42 °F 32 °F (1970)
Growing Degree Days 15 (Base 50)    
Moisture  
Dew Point 53 °F    
Average Humidity 67    
Maximum Humidity 97    
Minimum Humidity 38    
Precipitation  
Precipitation 0.02 in - - ()
Sea Level Pressure  
Sea Level Pressure 30.02 in    
Wind  
Wind Speed 5 mph (South)    
Max Wind Speed 9 mph    
Max Gust Speed -    
Visibility 10 miles    
Events Rain    
Averages and records for this station are not official NWS values.
T = Trace of Precipitation, MM = Missing Value Source: NWS Daily Summary

Daily Weather History Graph

Daily Weather History Graph

Search for Another Location

Airport or City:

Trip Planner

Search our weather history database for the weather conditions in past years. The results will help you decide how hot, cold, wet, or windy it might be!

Date:

Astronomy

Sep. 22, 2014 Rise Set
Actual Time 7:15 AM MDT 7:25 PM MDT
Civil Twilight 6:48 AM MDT 7:52 PM MDT
Nautical Twilight 6:15 AM MDT 8:24 PM MDT
Astronomical Twilight 5:42 AM MDT 8:57 PM MDT
Moon 5:47 AM MDT (9/22) 6:35 PM MDT (9/22)
Length of Visible Light 13h 04m
Length of Day
12h 09m
Waning Crescent, 2% of the Moon is Illuminated
Sep 22
Waning Crescent
Sep 24
New
Oct 1
First Quarter
Oct 8
Full
Oct 15
Last Quarter

Hourly Weather History & Observations

Time (MDT) Temp. Dew Point Humidity Pressure Visibility Wind Dir Wind Speed Gust Speed Precip Events Conditions
12:53 AM 57.9 °F 55.0 °F 90% 30.03 in 10.0 mi Calm Calm - N/A   Mostly Cloudy
2:14 AM 59.0 °F 57.0 °F 93% 30.15 in 10.0 mi ESE 4.6 mph - 0.01 in Rain Light Rain
2:53 AM 57.9 °F 57.0 °F 97% 30.04 in 10.0 mi South 4.6 mph - 0.02 in Rain Light Rain
3:53 AM 57.9 °F 55.9 °F 93% 30.04 in 10.0 mi SSE 5.8 mph - 0.00 in   Mostly Cloudy
4:53 AM 57.9 °F 55.0 °F 90% 30.04 in 10.0 mi South 6.9 mph - N/A   Mostly Cloudy
5:53 AM 57.9 °F 55.0 °F 90% 30.03 in 10.0 mi South 6.9 mph - N/A   Overcast
6:53 AM 57.9 °F 55.0 °F 90% 30.04 in 10.0 mi South 9.2 mph - N/A   Clear
7:53 AM 57.0 °F 55.0 °F 93% 30.06 in 10.0 mi South 6.9 mph - N/A   Clear
8:53 AM 59.0 °F 55.9 °F 90% 30.06 in 10.0 mi SSE 5.8 mph - N/A   Clear
9:53 AM 64.9 °F 57.0 °F 75% 30.07 in 10.0 mi SSE 4.6 mph - N/A   Scattered Clouds
10:53 AM 68.0 °F 57.0 °F 68% 30.06 in 10.0 mi WSW 6.9 mph - N/A   Scattered Clouds
11:53 AM 70.0 °F 54.0 °F 57% 30.04 in 10.0 mi SSE 8.1 mph - N/A   Partly Cloudy
12:53 PM 72.0 °F 53.1 °F 51% 30.04 in 10.0 mi WSW 8.1 mph - N/A   Partly Cloudy
1:53 PM 73.0 °F 46.9 °F 39% 30.02 in 10.0 mi WSW 6.9 mph - N/A   Partly Cloudy
2:53 PM 72.0 °F 45.0 °F 38% 30.01 in 10.0 mi WSW 6.9 mph - N/A   Overcast
3:53 PM 73.9 °F 48.0 °F 40% 29.99 in 10.0 mi SSW 5.8 mph - N/A   Mostly Cloudy
4:53 PM 73.9 °F 48.0 °F 40% 29.99 in 10.0 mi WSW 6.9 mph - N/A   Mostly Cloudy
5:53 PM 73.0 °F 48.0 °F 41% 29.98 in 10.0 mi West 6.9 mph - N/A   Clear
6:53 PM 71.1 °F 50.0 °F 47% 29.98 in 10.0 mi Calm Calm - N/A   Overcast
7:53 PM 71.1 °F 50.0 °F 47% 29.99 in 10.0 mi Calm Calm - N/A   Overcast
8:53 PM 69.1 °F 53.1 °F 57% 29.99 in 10.0 mi SE 3.5 mph - N/A   Overcast
9:53 PM 66.0 °F 53.1 °F 63% 29.98 in 10.0 mi South 5.8 mph - N/A   Mostly Cloudy
10:53 PM 64.9 °F 53.1 °F 65% 29.98 in 10.0 mi South 5.8 mph - N/A   Overcast
11:53 PM 64.9 °F 52.0 °F 63% 29.98 in 10.0 mi South 4.6 mph - N/A   Overcast